Regional Weather Roundup
Issued by NWS

Home | Current Version | Previous Version | Text Only | Print | Product List | Glossary On
Versions: 1 2 3 4 5 6 7 8 9 10 11 12 13 14 15 16 17 18 19 20 21 22 23 24 25 26 27 28 29 30 31 32 33 34 35 36 37 38 39 40 41 42 43 44 45 46 47 48 49 50
000
ASUS44 KEWX 010610
RWRTX
SOUTH TEXAS REGIONAL WEATHER ROUNDUP
NATIONAL WEATHER SERVICE AUSTIN/SAN ANTONIO TX
100 AM CDT FRI AUG 01 2014

NOTE: "FAIR" INDICATED FEW OR NO CLOUDS BELOW 12,000 FEET WITH NO
SIGNIFICANT WEATHER AND/OR OBSTRUCTIONS TO VISIBILITY.

* - THESE STATIONS ARE NOT NWS OR FAA STATIONS...AND ARE NOT SUBJECT
    TO NWS AND FAA QUALITY CONTROL.

TXZ171-172-183>190-010700-
TEXAS HILL COUNTRY AND EDWARDS PLATEAU

CITY           SKY/WX    TMP DP  RH WIND       PRES   REMARKS
JUNCTION       CLEAR     77  64  64 NE10      30.07S
6HR MIN TEMP:  77; 6HR MAX TEMP:  88;

*LLANO         PTCLDY    75  64  69 CALM      30.08S
BURNET         MOCLDY    74  63  68 NE8       30.07R
6HR MIN TEMP:  74; 6HR MAX TEMP:  88;

*HORSESHOE BAY CLOUDY    75  62  63 NE3       30.06S
6HR MIN TEMP:  75; 6HR MAX TEMP:  88;

*KERRVILLE     PTCLDY    77  66  68 NE5       30.05S
6HR MIN TEMP:  77; 6HR MAX TEMP:  93;

*FREDERICKSBRG MOCLDY    75  63  65 NE7       30.07R
6HR MIN TEMP:  75; 6HR MAX TEMP:  91;

*ROCKSPRINGS   CLEAR     77  64  65 NE8       30.09F
*BOERNE STAGE  MOCLDY    77  64  65 N5        30.04S
*CASTROVILLE   PTCLDY    85  66  53 NE13G21   29.99S
HONDO          MOCLDY    83  67  58 NE12      30.00S
6HR MIN TEMP:  82; 6HR MAX TEMP:  87;

*UVALDE        PTCLDY    85  70  60 NE13G18   29.97F HX  90
6HR MIN TEMP:  81; 6HR MAX TEMP:  88;

DEL RIO        PTCLDY    83  69  62 NE10      29.94S
6HR MIN TEMP:  83; 6HR MAX TEMP:  87; 6HR PCP: TRACE;

LAUGHLIN AFB   PTCLDY    81  70  68 NE7       29.96S
6HR MIN TEMP:  80; 6HR MAX TEMP:  83; 6HR PCP: TRACE;

CARRIZO SPRGS  CLEAR     86  70  58 E6        29.91R HX  90
$$

TXZ173-191>194-202-209-217>225-228-010700-
CENTRAL AND SOUTH CENTRAL TEXAS

CITY           SKY/WX    TMP DP  RH WIND       PRES   REMARKS
GEORGETOWN     PTCLDY    73  64  73 CALM      30.03F
6HR MIN TEMP:  73; 6HR MAX TEMP:  90;

AUSTIN/BERGSTM CLOUDY    79  64  60 N15       30.00F
6HR MIN TEMP:  79; 6HR MAX TEMP:  94;

AUSTIN/MABRY   MOCLDY    78  64  61 N5        30.02F
6HR MIN TEMP:  78; 6HR MAX TEMP:  92;

*AUSTIN/EXEC   CLOUDY    75  64  69 N7        30.02S
*LAGO VISTA    MOCLDY    75  63  66 NE7       30.04F
6HR MIN TEMP:  75; 6HR MAX TEMP:  88;

SAN MARCOS     CLOUDY    81  63  54 NE14      30.01F
6HR MIN TEMP:  81; 6HR MAX TEMP:  93;

NEW BRAUNFELS  LGT RAIN  81  66  60 NE17      29.98S
6HR MIN TEMP:  81; 6HR MAX TEMP:  91; 6HR PCP: TRACE;

RANDOLPH AFB   CLOUDY    82  67  61 NE10      29.99
6HR MIN TEMP:  80; 6HR MAX TEMP:  95;

PT SAN ANTONIO MOCLDY    84  72  65 NE7       29.97S
6HR MIN TEMP:  83; 6HR MAX TEMP:  95; 6HR PCP: TRACE;

SAN ANTONIO    MOCLDY    84  70  62 NE8       29.99S
6HR MIN TEMP:  82; 6HR MAX TEMP:  95;

STINSON FIELD  CLOUDY    83  71  67 E6        29.96S
6HR MIN TEMP:  83; 6HR MAX TEMP:  97;

*PLEASANTON    CLOUDY    83  69  62 E6        29.96R
6HR MIN TEMP:  82; 6HR MAX TEMP:  97;

*LA GRANGE     LGT RAIN  79  78  96 CALM      29.97S
6HR MIN TEMP:  78; 6HR MAX TEMP:  96; 6HR PCP:  0.48;

*GIDDINGS      CLOUDY    79  65  63 N3        30.03S
6HR MIN TEMP:  79; 6HR MAX TEMP:  93;

*GONZALES      CLOUDY    81  73  77 N5        29.97S
6HR MIN TEMP:  79; 6HR MAX TEMP:  96;

$$

TXZ163>164-176>182-195>201-210>213-226-227-235-010700-
SOUTHEAST TEXAS

CITY           SKY/WX    TMP DP  RH WIND       PRES   REMARKS
COLLEGE STN    CLOUDY    75  69  81 N6        29.98F
6HR MIN TEMP:  75; 6HR MAX TEMP:  80; 6HR PCP:  0.49;

*BRYAN         MOCLDY    74  69  85 NW6       29.97F
*CALDWELL      MOCLDY    75  68  78 NW7       30.02F HAZE
*CROCKETT      PTCLDY    77  75  94 W3        30.00S
*BRENHAM       CLOUDY    78  74  87 N3        29.99S
6HR MIN TEMP:  76; 6HR MAX TEMP:  93; 6HR PCP:  0.22;

HUNTSVILLE     CLOUDY    77  74  90 SW5       29.97F
6HR MIN TEMP:  76; 6HR MAX TEMP:  88; 6HR PCP:  0.21;

CONROE         CLOUDY    73  73 100 S7        29.97F
6HR MIN TEMP:  73; 6HR MAX TEMP:  84; 6HR PCP:  0.04;

HOUSTON BUSH   LGT RAIN  73  73 100 S8        29.98F FOG
6HR MIN TEMP:  73; 6HR MAX TEMP:  88; 6HR PCP:  3.91;

HOUSTON HOBBY  TSTM      81  77  88 SE3       29.95F
6HR MIN TEMP:  81; 6HR MAX TEMP:  87; 6HR PCP:  0.02;

*HOUSTON SW AP CLOUDY    79  78  97 CALM      29.96F
6HR MIN TEMP:  78; 6HR MAX TEMP:  85; 6HR PCP:  0.01;

PEARLAND       CLOUDY    82  77  84 CALM      29.96F THUNDER HX  90
6HR MIN TEMP:  82; 6HR MAX TEMP:  86; 6HR PCP:  0.01;

HOUSTON HOOKS  LGT RAIN  76  75  97 S5        29.97S
6HR MIN TEMP:  75; 6HR MAX TEMP:  86; 6HR PCP:  1.14;

ELLINGTON FLD  TSTM      82  79  89 CALM      29.96F HX  93
SUGAR LAND     CLOUDY    82  78  88 SW3       29.95F HX  91
6HR MIN TEMP:  81; 6HR MAX TEMP:  86; 6HR PCP: TRACE;

*HOUSTON EXEC  CLOUDY    77  77 100 NW6       29.97F
*CLEVELAND MUN LGT RAIN  74  73  97 SW5       29.96F
*WHARTON       CLOUDY    80  78  94 CALM      29.97S
6HR MIN TEMP:  80; 6HR MAX TEMP:  90;

$$

TXZ214>216-236>238-010700-
THE UPPER TEXAS COAST

CITY           SKY/WX    TMP DP  RH WIND       PRES   REMARKS
*ORANGE        LGT RAIN  79  79 100 SE3       29.97S
6HR MIN TEMP:  79; 6HR MAX TEMP:  84; 6HR PCP:  0.04;

PORT ARTHUR    LGT RAIN  79  75  87 S5        29.95S
6HR MIN TEMP:  79; 6HR MAX TEMP:  85; 6HR PCP:  0.06;

GALVESTON      CLOUDY    84  77  79 S10       29.95S HX  94
6HR MIN TEMP:  79; 6HR MAX TEMP:  87;

ANGLETON       CLOUDY    81  77  88 CALM      29.96R
6HR MIN TEMP:  81; 6HR MAX TEMP:  86;

*BAY CITY      CLOUDY    84  83  96 CALM      29.96R HX 100
PALACIOS       CLOUDY    85  77  77 S15       29.94R HX  95
6HR MIN TEMP:  84; 6HR MAX TEMP:  88;

$$

TXZ229>234-239>247-010700-
TEXAS COASTAL BEND AND RIO GRANDE PLAINS

CITY           SKY/WX    TMP DP  RH WIND       PRES   REMARKS
VICTORIA       CLOUDY    83  77  82 S6        29.95S HX  92
6HR MIN TEMP:  83; 6HR MAX TEMP:  92;

*BEEVILLE      CLOUDY    81  75  82 S13       29.93S
6HR MIN TEMP:  81; 6HR MAX TEMP:  93;

ROCKPORT       CLEAR     82  77  84 S8        29.92S HX  90
6HR MIN TEMP:  82; 6HR MAX TEMP:  86;

*PORT ARANSAS  CLOUDY    80  78  94 S12       29.92S
6HR MIN TEMP:  80; 6HR MAX TEMP:  84;

*PORT LAVACA   CLOUDY    81  76  85 S6        29.93S
6HR MIN TEMP:  81; 6HR MAX TEMP:  88;

*INGLESIDE     CLEAR     83  76  80 S12G20    29.92S HX  91
CORPUS CHRISTI MOCLDY    81  76  84 S13       29.93S
6HR MIN TEMP:  81; 6HR MAX TEMP:  90;

CORPUS NAS     CLEAR     82  78  88 S16G22    29.92S HX  91
6HR MIN TEMP:  82; 6HR MAX TEMP:  86;

*ROBSTOWN      NOT AVBL
ALICE          CLEAR     81  74  79 S12       29.92S
6HR MIN TEMP:  81; 6HR MAX TEMP:  94;

KINGSVILLE NAS CLEAR     81  77  88 S10       29.93R
6HR MIN TEMP:  81; 6HR MAX TEMP:  92;

COTULLA        CLEAR     86  72  62 SE10      29.92S HX  92
6HR MIN TEMP:  86; 6HR MAX TEMP: 102;

*FAITH RANCH   CLEAR     88  66  48 E6        29.93R HX  90
LAREDO         CLEAR     88  69  53 SE18      29.94S HX  92
6HR MIN TEMP:  88; 6HR MAX TEMP: 105;

$$

TXZ248>255-010700-
DEEP SOUTH TEXAS

CITY           SKY/WX    TMP DP  RH WIND       PRES   REMARKS
BROWNSVILLE    CLEAR     80  76  87 SE9       29.95S
6HR MIN TEMP:  80; 6HR MAX TEMP:  89;

PORT ISABEL    PTCLDY    83  77  82 SE10      29.94F HX  92
6HR MIN TEMP:  83; 6HR MAX TEMP:  89;

*SOUTH PADRE     N/A     81  77  89 S8        29.95S
HARLINGEN      MOCLDY    81  76  84 SE8       29.94S
6HR MIN TEMP:  81; 6HR MAX TEMP:  91;

*HEBBRONVILLE  CLEAR     82  71  69 SE10      29.95S
MCALLEN        PTCLDY    83  76  79 SE14      29.94S HX  91


USA.gov is the U.S. government's official web portal to all federal, state and local government web resources and services.